Погода в Сомове

Россия / Тульская область     53°51′39″N   36°31′21″E
темп.,
°C
ветер,
м/с
пор.,
м/с
влажн.,
%
обл.,
%
осадки,
мм/ч
давл.,
гПа
погр.,
м
27 октября, ср
ср2700:00+3юз61566100 0.0 1023402
03:00+2юз61470100 0.0 1022353
06:00+1ююз61376100 0.0 1020326
09:00+2юз6157789 0.0 1019465
12:00+7юз8126297 0.0 1018685
15:00+7зюз71265100 0.0 1018766
18:00+6з61177100 0.0 1019532
21:00+5з41088100 0.0 1019457
28 октября, чт
чт2800:00+3юз4109595 0.0 1019224
03:00+4юз51393100 0.0 1017345
06:00+5юз71590100 0.8 1014515
09:00+6зюз61393100 2.8 1014624
12:00+8з6139396 0.4 1014556
15:00+10зсз6118688 0.4 1014809
18:00+9ссз7127481 0.3 1017690
21:00+8ссз51078100 0.3 1020501
29 октября, пт
пт2900:00+5ссз38946 0.0 1022192
03:00+4с239557 0.0 102548
06:00+3св1190100 0.0 102610
09:00+4ю228488 0.0 102858
12:00+8ююз347069 0.0 1028466
15:00+9юз456521 0.0 1028522
18:00+6юз33765 0.0 103026
21:00+5юз348448 0.0 103052
30 октября, сб
сб3000:00+4юз349049 0.0 103165
03:00+3юз36915 0.0 103199
06:00+3юз35915 0.0 103276
09:00+4ююз378824 0.0 1032173
12:00+9юз466815 0.0 1032398
15:00+10юз466455 0.0 1031517
18:00+6ююз478266 0.0 1031108
21:00+5ююз38895 0.0 1032136
31 октября, вс
вс3100:00+4ююз38925 0.0 1032135
03:00+3ююз37935 0.0 1032126
06:00+3ююз37935 0.0 1031118
09:00+4ююз38885 0.0 1031179
12:00+9ююз57635 0.0 1030395
15:00+10ююз47591 0.0 1029546
18:00+6ю35760 0.0 102961
21:00+5ю36831 0.0 102984